Weather History for Ashland, WI

Change the Weather History Date:

Wednesday, May 28, 2014

  Actual Average Record
Temperature  
Mean Temperature 49 °F -  
Max Temperature 64 °F 67 °F 93 °F (1969)
Min Temperature 34 °F 41 °F 28 °F (2008)
Degree Days  
Heating Degree Days 16    
Moisture  
Dew Point 42 °F    
Average Humidity 79    
Maximum Humidity 100    
Minimum Humidity 54    
Precipitation  
Precipitation 0.00 in - - ()
Sea Level Pressure  
Sea Level Pressure 30.16 in    
Wind  
Wind Speed 4 mph (NNE)    
Max Wind Speed 15 mph    
Max Gust Speed -    
Visibility 10 miles    
Events      
Averages and records for this station are not official NWS values.
T = Trace of Precipitation, MM = Missing Value Source: NWS Daily Summary

Daily Weather History Graph

Daily Weather History Graph

Search for Another Location

Airport:

Trip Planner

Search our weather history database for the weather conditions in past years. The results will help you decide how hot, cold, wet, or windy it might be!

Date:

Astronomy

May. 28, 2014 Rise Set
Actual Time 5:17 AM CDT 8:45 PM CDT
Civil Twilight 4:39 AM CDT 9:23 PM CDT
Nautical Twilight 3:50 AM CDT 10:12 PM CDT
Astronomical Twilight 2:45 AM CDT 11:18 PM CDT
Moon 5:27 AM CDT (5/28) 8:40 PM CDT (5/28)
Length of Visible Light 16h 43m
Length of Day
15h 28m
Waning Crescent, 0% of the Moon is Illuminated
May 28
Waning Crescent
May 28
New
Jun 5
First Quarter
Jun 12
Full
Jun 19
Last Quarter

Hourly Weather History & Observations

Time (CDT) Temp. Windchill Dew Point Humidity Pressure Visibility Wind Dir Wind Speed Gust Speed Precip Events Conditions
12:53 AM 37.9 °F - 37.0 °F 97% 30.11 in 10.0 mi Calm Calm - N/A   Clear
1:53 AM 36.0 °F 33.3 °F 36.0 °F 100% 30.11 in 10.0 mi ESE 3.5 mph - N/A   Clear
2:53 AM 35.1 °F - 35.1 °F 100% 30.10 in 10.0 mi Calm Calm - N/A   Clear
3:53 AM 35.1 °F - 35.1 °F 100% 30.10 in 10.0 mi Calm Calm - N/A   Clear
4:53 AM 34.0 °F - 33.1 °F 96% 30.12 in 10.0 mi Calm Calm - N/A   Clear
5:53 AM 35.1 °F - 34.0 °F 96% 30.14 in 10.0 mi Calm Calm - N/A   Clear
6:53 AM 42.1 °F - 41.0 °F 96% 30.16 in 10.0 mi Calm Calm - N/A   Clear
7:53 AM 48.9 °F - 42.1 °F 77% 30.16 in 10.0 mi East 4.6 mph - N/A   Clear
8:53 AM 51.1 °F - 44.1 °F 77% 30.17 in 10.0 mi North 4.6 mph - N/A   Clear
9:53 AM 57.0 °F - 46.0 °F 67% 30.17 in 10.0 mi North 4.6 mph - N/A   Clear
10:53 AM 59.0 °F - 45.0 °F 60% 30.18 in 10.0 mi North 9.2 mph - N/A   Clear
11:53 AM 63.0 °F - 46.0 °F 54% 30.18 in 10.0 mi NE 11.5 mph - N/A   Clear
1:53 PM 63.0 °F - 46.9 °F 56% 30.18 in 10.0 mi North 15.0 mph - N/A   Clear
2:53 PM 64.0 °F - 48.9 °F 58% 30.17 in 10.0 mi NNE 12.7 mph - N/A   Clear
3:53 PM 61.0 °F - 46.9 °F 60% 30.17 in 10.0 mi NNE 12.7 mph - N/A   Clear
4:53 PM 62.1 °F - 48.0 °F 60% 30.17 in 10.0 mi North 11.5 mph - N/A   Clear
5:53 PM 59.0 °F - 46.0 °F 62% 30.17 in 10.0 mi North 12.7 mph - N/A   Clear
6:53 PM 57.9 °F - 46.0 °F 65% 30.16 in 10.0 mi ENE 9.2 mph - N/A   Unknown
7:53 PM 54.0 °F - 45.0 °F 72% 30.17 in 10.0 mi NNE 8.1 mph - N/A   Clear
8:53 PM 46.9 °F - 43.0 °F 86% 30.17 in 10.0 mi NNE 3.5 mph - N/A   Clear
9:53 PM 44.1 °F - 43.0 °F 96% 30.17 in 10.0 mi Calm Calm - N/A   Clear
10:53 PM 44.1 °F 42.5 °F 42.1 °F 93% 30.17 in 10.0 mi North 3.5 mph - N/A   Clear
11:53 PM 42.1 °F - 41.0 °F 96% 30.17 in 10.0 mi Calm Calm - N/A   Clear